| time (UTC) | temp C | wind direction | speed KPH | gust KPH | rain 1hr cm | rain 24hr cm | rain mn cm | humidity % | barometer mb |
| 20260503231826 | 16 | 270 | 3.2 | 6.4 | 0.00 | 0.00 | 0.00 | 44 | 1019.1 |
| 20260503230827 | 16 | 270 | 0.0 | 1.6 | 0.00 | 0.00 | 0.00 | 42 | 1019.1 |
| 20260503224926 | 17 | 292 | 1.6 | 3.2 | 0.00 | 0.00 | 0.00 | 41 | 1019.1 |
| 20260503223927 | 17 | 247 | 0.0 | 3.2 | 0.00 | 0.00 | 0.00 | 42 | 1019.1 |
| 20260503222827 | 17 | 223 | 0.0 | 3.2 | 0.00 | 0.00 | 0.00 | 41 | 1019.1 |
| 20260503221828 | 17 | 247 | 1.6 | 3.2 | 0.00 | 0.00 | 0.00 | 42 | 1019.2 |
| 20260503220828 | 17 | 247 | 3.2 | 4.8 | 0.00 | 0.00 | 0.00 | 42 | 1019.2 |
| 20260503220726 | 17 | 247 | 3.2 | 4.8 | 0.00 | 0.00 | 0.00 | 42 | 1019.1 |
| 20260503215727 | 17 | 222 | 1.6 | 4.8 | 0.00 | 0.00 | 0.00 | 41 | 1019.2 |
| 20260503213826 | 17 | 218 | 1.6 | 6.4 | 0.00 | 0.00 | 0.00 | 41 | 1019.1 |
| 20260503212827 | 17 | 247 | 3.2 | 6.4 | 0.00 | 0.00 | 0.00 | 41 | 1019.4 |
| 20260503210826 | 17 | 270 | 6.4 | 8.0 | 0.00 | 0.00 | 0.00 | 40 | 1019.5 |
| 20260503203827 | 17 | 292 | 1.6 | 4.8 | 0.00 | 0.00 | 0.00 | 39 | 1019.8 |
| 20260503202828 | 18 | 284 | 4.8 | 8.0 | 0.00 | 0.00 | 0.00 | 38 | 1019.9 |
| 20260503202727 | 18 | 253 | 6.4 | 9.7 | 0.00 | 0.00 | 0.00 | 38 | 1020.0 |
| 20260503200728 | 18 | 267 | 4.8 | 8.0 | 0.00 | 0.00 | 0.00 | 37 | 1020.1 |
| 20260503195727 | 18 | 271 | 3.2 | 4.8 | 0.00 | 0.00 | 0.00 | 38 | 1020.3 |
| 20260503193727 | 18 | 292 | 0.0 | 1.6 | 0.00 | 0.00 | 0.00 | 37 | 1020.4 |
| 20260503193627 | 18 | 292 | 3.2 | 3.2 | 0.00 | 0.00 | 0.00 | 37 | 1020.4 |
| 20260503192627 | 18 | 253 | 4.8 | 6.4 | 0.00 | 0.00 | 0.00 | 37 | 1020.6 |
| 20260503191630 | 18 | 109 | 0.0 | 1.6 | 0.00 | 0.00 | 0.00 | 37 | 1020.8 |
| 20260503190627 | 18 | 275 | 4.8 | 8.0 | 0.00 | 0.00 | 0.00 | 34 | 1020.8 |
| 20260503185627 | 18 | 320 | 3.2 | 6.4 | 0.00 | 0.00 | 0.00 | 34 | 1021.0 |
| 20260503184726 | 18 | 270 | 6.4 | 9.7 | 0.00 | 0.00 | 0.00 | 34 | 1020.9 |
| 20260503183728 | 18 | 184 | 1.6 | 4.8 | 0.00 | 0.00 | 0.00 | 33 | 1020.9 |
| 20260503182728 | 18 | 180 | 0.0 | 0.0 | 0.00 | 0.00 | 0.00 | 33 | 1021.1 |
| 20260503181727 | 18 | 247 | 1.6 | 3.2 | 0.00 | 0.00 | 0.00 | 32 | 1021.2 |
| 20260503180826 | 17 | 182 | 0.0 | 1.6 | 0.00 | 0.00 | 0.00 | 33 | 1021.2 |
| 20260503180727 | 17 | 157 | 0.0 | 1.6 | 0.00 | 0.00 | 0.00 | 33 | 1021.2 |
| 20260503175729 | 18 | 292 | 1.6 | 3.2 | 0.00 | 0.00 | 0.00 | 32 | 1021.3 |
| 20260503174727 | 19 | 209 | 1.6 | 6.4 | 0.00 | 0.00 | 0.00 | 34 | 1021.2 |
| 20260503173825 | 18 | 202 | 0.0 | 1.6 | 0.00 | 0.00 | 0.00 | 34 | 1021.5 |
| 20260503172828 | 17 | 202 | 0.0 | 1.6 | 0.00 | 0.00 | 0.00 | 35 | 1021.6 |
| 20260503171926 | 17 | 247 | 0.0 | 0.0 | 0.00 | 0.00 | 0.00 | 36 | 1021.8 |
| 20260503170927 | 17 | 278 | 0.0 | 3.2 | 0.00 | 0.00 | 0.00 | 36 | 1022.0 |
| 20260503150826 | 8 | 292 | 0.0 | 0.0 | 0.00 | 0.00 | 0.00 | 71 | 1023.2 |
| 20260503130827 | 1 | 45 | 0.0 | 0.0 | 0.00 | 0.00 | 0.00 | 96 | 1022.5 |
| 20260503110626 | 0 | 180 | 0.0 | 1.6 | 0.00 | 0.00 | 0.00 | 94 | 1021.8 |
| 20260503081628 | 1 | 180 | 0.0 | 0.0 | 0.00 | 0.00 | 0.00 | 90 | 1019.9 |
| 20260503080627 | 1 | 180 | 0.0 | 0.0 | 0.00 | 0.00 | 0.00 | 90 | 1019.9 |
| 20260503080528 | 1 | 180 | 0.0 | 0.0 | 0.00 | 0.00 | 0.00 | 90 | 1020.0 |
| 20260503072427 | 1 | 180 | 0.0 | 0.0 | 0.00 | 0.00 | 0.00 | 88 | 1019.5 |
| 20260503071428 | 2 | 180 | 0.0 | 0.0 | 0.00 | 0.00 | 0.00 | 88 | 1019.5 |
| 20260503070426 | 2 | 180 | 0.0 | 0.0 | 0.00 | 0.00 | 0.00 | 87 | 1019.3 |
| 20260503060328 | 3 | 180 | 0.0 | 0.0 | 0.00 | 0.00 | 0.00 | 83 | 1019.3 |
| 20260503054327 | 3 | 180 | 0.0 | 0.0 | 0.00 | 0.00 | 0.00 | 82 | 1019.5 |
| 20260503053426 | 3 | 180 | 0.0 | 0.0 | 0.00 | 0.00 | 0.00 | 81 | 1019.5 |
| 20260503052428 | 3 | 180 | 0.0 | 0.0 | 0.00 | 0.00 | 0.00 | 78 | 1019.6 |
| 20260503052327 | 3 | 180 | 0.0 | 0.0 | 0.00 | 0.00 | 0.00 | 78 | 1019.5 |
| 20260503051327 | 3 | 180 | 0.0 | 0.0 | 0.00 | 0.00 | 0.00 | 78 | 1019.6 |
| 20260503050327 | 3 | 180 | 0.0 | 0.0 | 0.00 | 0.00 | 0.00 | 77 | 1019.5 |
| 20260503045326 | 4 | 180 | 0.0 | 0.0 | 0.00 | 0.00 | 0.00 | 77 | 1019.5 |
| 20260503044327 | 5 | 180 | 0.0 | 1.6 | 0.00 | 0.00 | 0.00 | 74 | 1019.5 |
| 20260503042328 | 5 | 180 | 0.0 | 0.0 | 0.00 | 0.00 | 0.00 | 72 | 1019.3 |
| 20260503041327 | 5 | 180 | 0.0 | 0.0 | 0.00 | 0.00 | 0.00 | 69 | 1019.2 |
| 20260503040327 | 6 | 180 | 0.0 | 0.0 | 0.00 | 0.00 | 0.00 | 69 | 1019.3 |
| 20260503035332 | 6 | 180 | 0.0 | 0.0 | 0.00 | 0.00 | 0.00 | 67 | 1019.2 |
| 20260503034332 | 6 | 180 | 0.0 | 0.0 | 0.00 | 0.00 | 0.00 | 66 | 1019.1 |
| 20260503033431 | 7 | 180 | 0.0 | 0.0 | 0.00 | 0.00 | 0.00 | 64 | 1019.2 |
| 20260503033330 | 7 | 180 | 0.0 | 0.0 | 0.00 | 0.00 | 0.00 | 63 | 1019.2 |
| 20260503031230 | 7 | 45 | 1.6 | 3.2 | 0.00 | 0.00 | 0.00 | 61 | 1018.9 |
| 20260503024330 | 8 | 22 | 0.0 | 1.6 | 0.00 | 0.00 | 0.00 | 56 | 1018.6 |
| 20260503023332 | 8 | 22 | 1.6 | 3.2 | 0.00 | 0.00 | 0.00 | 56 | 1018.6 |
| 20260503022331 | 9 | 22 | 3.2 | 3.2 | 0.00 | 0.00 | 0.00 | 55 | 1018.6 |
| 20260503021331 | 9 | 22 | 1.6 | 1.6 | 0.00 | 0.00 | 0.00 | 54 | 1018.6 |
| 20260503020430 | 9 | 22 | 1.6 | 1.6 | 0.00 | 0.00 | 0.00 | 54 | 1018.5 |
| 20260503015430 | 9 | 67 | 0.0 | 0.0 | 0.00 | 0.00 | 0.00 | 52 | 1018.4 |
| 20260503012530 | 10 | 67 | 0.0 | 1.6 | 0.00 | 0.00 | 0.00 | 51 | 1018.1 |
| 20260503011533 | 10 | 112 | 0.0 | 0.0 | 0.00 | 0.00 | 0.00 | 48 | 1017.9 |
| 20260503010530 | 10 | 112 | 1.6 | 3.2 | 0.00 | 0.00 | 0.00 | 47 | 1017.8 |
| 20260503005532 | 10 | 112 | 1.6 | 1.6 | 0.00 | 0.00 | 0.00 | 47 | 1017.5 |
| 20260503004532 | 10 | 112 | 1.6 | 3.2 | 0.00 | 0.00 | 0.00 | 47 | 1017.4 |
| 20260503003629 | 11 | 90 | 1.6 | 3.2 | 0.00 | 0.00 | 0.00 | 46 | 1017.3 |
| 20260503001730 | 11 | 129 | 0.0 | 4.8 | 0.00 | 0.00 | 0.00 | 43 | 1017.1 |
| 20260502235733 | 12 | 167 | 1.6 | 3.2 | 0.00 | 0.00 | 0.00 | 43 | 1016.7 |
| 20260502234732 | 12 | 153 | 4.8 | 6.4 | 0.00 | 0.00 | 0.00 | 43 | 1016.6 |
| 20260502233830 | 12 | 157 | 3.2 | 4.8 | 0.00 | 0.00 | 0.00 | 43 | 1016.4 |
| 20260502233733 | 12 | 157 | 3.2 | 3.2 | 0.00 | 0.00 | 0.00 | 43 | 1016.4 |